Temperature
20 19 19 19 19 18 18 18 18 18 18 18 17 17 17 17 17 17 17 17 17 17 16 16 16 16 16 16 16 16 16 16 16 16 16 16 16 16 16 15 15 15 15
20 19 19 19 19 18 18 18 18 18 17 17 17 17 17 17 17 17 17 17 16 16 16 16 16 16 16 16 16 16 16 16 15 15 16 15 15 15 15 15 15 15 15
20 19 19 19 19 18 18 18 18 17 17 17 17 17 17 17 17 17 16 16 16 16 16 16 16 16 16 16 16 16 16 15 15 15 15 15 15 15 15 15 15 15 15
20 19 19 19 18 18 18 18 17 17 17 17 17 17 17 16 16 16 16 16 16 16 16 15 15 15 15 15 15 15 15 15 15 15 15 15 15 15 14 14 14 14 14
19 19 19 18 18 18 18 17 17 17 17 17 17 16 16 16 16 16 16 16 15 15 15 15 15 15 15 15 15 15 15 15 15 15 15 14 14 14 14 14 14 14 14
19 19 18 18 18 18 17 17 17 17 17 17 16 16 16 16 16 16 15 15 15 15 15 15 15 15 15 15 15 15 15 14 14 14 14 14 14 14 14 14 14 14 13
19 18 18 18 18 18 17 17 17 17 17 16 16 16 16 16 15 15 15 15 15 15 15 15 15 15 15 15 15 15 15 14 14 14 14 14 14 14 13 13 13 13 13
19 18 18 18 18 17 17 17 17 16 16 16 16 16 16 16 15 15 15 15 15 15 15 15 15 14 14 14 14 14 14 14 14 14 14 14 13 13 13 13 13 13 13
18 18 18 17 17 17 17 17 16 16 16 16 16 16 16 15 15 15 15 15 15 14 14 14 14 14 14 14 14 14 14 14 14 13 13 13 13 13 13 12 12 12 12
18 18 17 17 17 17 17 16 16 16 16 15 15 15 15 15 15 15 15 14 14 14 14 14 14 14 14 13 13 13 13 13 13 13 13 13 13 13 12 12 12 12 12
18 17 17 17 16 16 16 16 16 16 15 15 15 15 15 15 14 14 14 14 14 14 14 14 14 13 13 13 13 13 13 12 12 12 12 12 12 12 12 12 12 11 11
17 17 17 16 16 16 16 16 15 15 15 15 15 15 15 14 14 14 14 14 13 13 13 13 13 13 13 13 12 12 12 12 12 12 12 12 12 12 11 11 11 11 11
17 17 16 16 16 16 15 15 15 15 15 15 14 14 14 14 14 14 13 13 13 13 13 12 12 12 12 12 12 12 12 12 12 11 11 11 11 11 11 11 11 11 10
17 16 16 16 16 15 15 15 14 14 14 14 14 14 14 14 13 13 13 13 13 13 13 12 12 12 12 12 12 12 11 11 11 11 11 11 11 11 11 11 10 10 10
16 16 16 15 15 15 15 14 14 14 14 14 14 14 14 13 13 13 13 12 12 12 12 12 12 12 12 11 11 11 11 11 10 10 10 10 10 10 10 10 10 10 10
15 15 15 15 15 14 14 14 14 14 13 13 13 13 13 13 13 13 12 12 12 12 12 12 11 11 11 11 11 11 10 10 10 10 10 10 10 9 9 9 9 9 9
15 15 14 14 14 14 14 13 13 13 13 13 13 13 13 13 12 12 12 12 11 11 11 11 11 11 11 10 10 10 10 10 10 10 9 9 9 9 9 9 9 9 9
15 14 14 14 13 13 13 13 13 13 13 13 13 13 12 12 12 11 11 11 11 11 11 11 10 10 10 10 10 10 9 9 9 9 9 9 9 8 8 8 8 8 8
14 14 14 14 13 13 13 13 12 12 12 12 12 12 12 12 11 11 11 11 11 11 10 10 10 10 10 10 9 9 9 9 9 9 9 8 8 8 8 8 8 8 8
14 14 13 13 13 13 13 12 12 12 12 12 12 12 12 11 11 11 10 10 10 10 10 10 10 10 9 9 9 9 9 9 8 8 8 8 8 8 8 8 8 7 7
13 13 13 13 13 12 12 12 12 12 11 11 11 11 11 11 11 10 10 10 10 10 10 10 9 9 9 9 9 8 8 8 8 8 8 8 7 7 7 7 7 7 7
13 13 13 12 12 12 12 12 12 12 11 11 11 11 11 11 11 10 10 10 10 10 9 9 9 9 9 9 8 8 8 8 8 8 7 7 7 7 7 7 7 7 7
13 12 12 12 12 12 12 12 11 11 11 11 11 11 11 10 10 10 10 10 10 10 9 9 9 9 9 8 8 8 8 8 8 7 7 7 7 6 6 6 6 6 6
12 12 12 12 12 12 12 11 11 11 11 11 11 11 10 10 10 10 10 10 9 9 9 9 9 9 8 8 8 8 7 7 7 7 7 6 6 6 6 6 6 6 6
12 12 12 12 11 11 11 11 11 11 11 11 10 10 10 10 10 10 10 9 9 9 9 8 8 8 8 8 8 7 7 7 7 7 6 6 6 6 5 5 5 5 5
12 12 12 11 11 11 11 11 11 11 10 10 10 10 10 10 10 10 9 9 9 9 8 8 8 8 8 8 7 7 7 7 6 6 6 6 5 5 5 5 5 5 5
Wind_Speed
4 4 3 3 2 2 2 2 2 2 1 1 1 1 1 1 1 1 2 2 2 2 2 1 2 2 1 1 1 1 2 2 3 3 2 3 2 3 3 2 2 2 2
4 3 3 3 2 2 2 2 2 1 1 1 1 1 1 1 1 2 2 2 2 3 3 2 3 2 1 2 2 2 2 2 3 4 3 3 2 3 3 2 2 2 2
4 3 3 3 2 2 2 2 2 1 1 1 0 0 1 2 2 2 2 2 2 3 3 3 3 2 2 2 2 2 2 2 2 3 3 3 3 2 2 3 3 2 2
4 4 3 4 4 3 2 2 2 2 2 1 1 1 2 2 2 2 2 2 3 3 3 3 4 4 4 4 3 3 2 2 1 2 3 3 3 2 1 2 3 3 2
4 4 4 4 3 3 2 2 2 2 2 2 1 2 2 2 2 2 3 3 3 3 3 4 4 4 4 4 3 3 2 2 1 2 2 3 3 2 2 2 3 3 3
4 3 3 3 3 3 3 3 2 2 2 2 2 2 2 2 3 3 3 3 3 3 4 4 4 3 4 3 3 4 4 3 3 3 3 4 4 3 3 3 2 2 3
3 3 3 3 3 3 3 2 3 3 2 2 2 2 3 4 4 3 4 3 2 3 3 3 3 2 2 1 1 2 2 2 3 3 4 4 4 3 3 3 3 3 4
4 3 3 3 3 3 2 3 3 2 2 3 3 3 3 4 4 4 3 2 2 3 3 2 2 2 2 1 1 2 2 3 2 2 2 3 3 3 3 3 3 2 2
4 4 4 4 4 4 4 4 3 2 3 3 3 3 3 4 4 3 2 1 2 3 2 2 1 2 2 2 1 1 2 3 2 1 0 1 1 1 1 0 1 1 2
5 5 4 5 5 5 5 4 3 3 4 3 3 2 3 3 3 3 2 1 1 2 2 2 1 1 2 2 1 1 2 3 2 2 3 3 2 1 1 2 3 2 2
4 4 4 5 5 5 4 3 3 3 3 2 3 2 2 2 2 2 2 1 1 2 2 2 2 2 2 2 1 1 2 2 1 1 2 2 2 2 2 1 2 2 2
3 4 4 4 4 3 3 3 2 3 2 2 2 2 2 2 1 2 2 1 1 1 2 2 2 2 3 2 1 1 1 0 1 1 1 2 2 2 2 2 2 2 3
3 3 3 3 3 3 4 3 2 2 2 2 2 3 3 2 1 2 2 1 1 1 1 2 2 2 2 1 1 1 1 1 1 1 1 2 2 2 2 1 1 1 2
3 3 3 3 2 2 2 3 3 3 3 3 3 3 2 2 1 1 1 1 1 1 1 2 2 2 2 2 2 2 1 1 1 0 1 2 2 1 1 1 1 1 1
3 3 2 2 3 3 2 2 3 4 4 4 4 4 3 3 3 3 2 2 1 1 0 1 2 2 2 2 2 2 1 1 1 1 1 2 2 1 1 1 1 1 1
3 3 2 2 2 2 2 0 1 1 2 4 4 4 3 3 2 2 2 2 1 2 2 1 0 0 0 1 1 1 1 1 1 1 1 1 1 1 1 1 1 1 1
4 4 3 2 2 2 3 3 1 1 2 1 1 2 3 2 2 2 1 1 1 3 2 0 1 1 1 1 1 1 1 1 1 1 1 1 1 1 1 2 1 1 2
4 4 4 3 3 3 3 3 3 2 1 1 1 0 2 2 2 2 2 3 2 1 0 1 1 1 1 1 1 2 2 1 1 1 1 1 1 1 2 2 2 2 3
3 3 3 3 2 3 3 2 2 3 2 1 1 1 1 1 2 2 4 2 1 1 1 2 2 2 2 2 2 2 2 2 1 1 1 2 1 2 2 3 3 3 3
3 4 3 3 3 3 2 2 2 3 3 2 3 2 2 2 1 1 1 1 2 2 2 3 3 2 2 2 2 1 1 2 2 2 2 2 2 2 3 3 3 3 3
3 3 3 3 3 3 3 3 3 3 3 3 3 3 4 3 3 3 2 2 3 3 3 3 3 2 2 2 2 2 2 2 2 2 2 2 2 3 3 3 3 3 3
3 3 3 3 3 3 4 4 4 4 3 3 2 2 4 3 3 3 3 3 3 3 3 3 3 3 2 2 2 2 2 2 2 2 3 3 2 3 3 3 3 3 3
3 3 3 3 3 4 4 3 3 4 4 3 3 2 2 3 3 3 3 3 3 3 3 3 3 2 2 2 3 3 3 3 4 3 3 3 3 3 3 3 4 3 3
3 3 3 3 3 4 4 4 3 4 3 3 3 2 2 3 3 3 3 3 2 2 2 3 3 3 4 3 3 3 4 4 4 4 4 3 3 3 3 3 3 4 3
3 3 4 4 4 4 3 3 3 3 3 3 3 2 2 2 2 2 2 2 2 2 3 3 3 3 4 4 4 3 4 4 4 3 3 3 3 3 3 3 3 3 3
3 3 3 3 3 3 3 3 3 3 3 3 3 2 2 2 2 3 2 2 2 2 3 3 3 4 4 4 5 4 4 4 4 4 3 3 3 3 3 3 3 3 3
Wind_Direction
182 182 177 181 181 174 185 202 203 219 233 249 257 268 277 275 243 217 238 240 243 271 274 246 258 241 239 243 219 206 209 206 244 285 286 303 302 307 316 319 319 326 320
182 176 178 175 173 184 203 213 201 212 243 241 249 279 285 282 257 230 248 251 244 256 261 252 268 261 242 246 229 230 231 219 221 268 294 306 292 285 296 301 318 319 309
170 170 168 174 186 197 208 215 204 203 226 214 176 262 292 287 270 257 246 250 249 254 253 243 252 248 253 250 243 249 250 242 228 244 281 294 301 304 309 313 313 313 306
171 176 189 197 197 200 209 208 210 202 203 211 222 237 265 279 273 269 258 255 259 264 258 247 249 243 246 243 246 250 244 242 243 248 281 295 297 298 288 306 314 320 304
174 186 200 201 194 190 201 212 221 223 224 228 241 266 276 265 266 270 264 259 259 269 269 261 256 254 254 244 247 248 239 238 248 264 279 292 295 294 279 278 287 301 302
178 200 205 199 201 204 209 212 227 247 249 240 244 260 286 292 289 261 248 255 255 256 269 278 273 267 277 277 263 248 235 235 243 251 269 270 277 278 280 271 274 291 290
181 195 198 201 213 224 223 218 232 242 241 250 250 253 274 280 277 266 246 242 248 256 271 286 290 294 283 289 331 348 323 294 232 232 252 264 268 263 262 272 267 270 269
189 199 203 208 220 222 212 221 232 232 233 240 248 254 268 285 286 277 268 249 257 262 267 272 277 296 302 334 360 358 350 337 307 249 240 260 267 259 239 244 255 280 289
204 210 211 210 220 222 222 227 228 224 241 248 248 250 263 286 290 283 277 258 268 284 292 292 276 289 318 3 46 356 338 332 350 1 12 349 339 302 237 236 268 260 298
217 216 213 211 214 220 223 224 226 221 234 248 256 251 249 274 290 281 260 236 270 290 300 303 301 311 338 2 1 244 282 302 333 2 17 18 10 4 299 225 213 222 262
218 212 211 213 213 215 216 218 218 222 236 250 257 263 253 260 277 274 250 228 247 274 285 300 312 333 326 314 296 251 252 282 340 10 9 4 357 353 337 305 249 220 234
202 205 212 217 220 219 212 222 219 210 222 245 257 279 281 274 272 274 254 246 268 253 273 294 307 306 307 310 325 294 285 99 77 38 6 352 338 315 308 306 286 256 252
198 213 222 221 220 211 207 215 219 209 216 238 242 259 278 289 287 279 266 261 277 287 301 309 312 309 322 346 10 19 70 88 99 62 326 312 303 290 294 311 321 326 321
202 220 221 210 216 215 210 208 210 212 217 226 237 248 264 273 272 285 295 295 328 342 360 20 28 47 50 37 25 38 63 101 141 264 306 317 322 330 322 303 301 324 327
204 216 221 213 203 208 218 220 216 219 211 210 223 228 228 246 247 220 208 229 249 254 102 60 52 49 39 31 21 19 29 34 18 356 334 325 328 343 347 343 341 346 310
201 217 223 222 213 203 197 257 23 230 223 213 217 220 235 237 229 201 211 219 176 130 105 93 42 13 344 347 352 351 353 342 323 331 326 305 301 302 311 333 346 328 300
209 219 215 216 212 208 197 190 213 13 39 52 211 200 194 198 200 201 193 146 124 126 107 190 264 266 270 286 287 284 300 303 304 297 297 304 302 302 300 304 310 306 295
221 218 208 213 211 214 210 202 197 198 230 316 357 129 167 189 199 192 156 113 81 98 185 234 247 252 257 265 268 265 279 299 297 290 289 296 297 298 293 287 282 280 286
226 224 212 205 206 208 201 195 203 209 213 226 269 313 176 165 157 144 138 140 177 208 235 247 254 258 260 260 263 263 265 274 281 277 277 280 285 286 283 283 277 270 273
227 221 205 187 196 196 186 190 204 212 215 218 227 222 178 155 168 178 177 195 210 230 244 251 254 253 252 249 254 263 270 270 272 271 275 278 280 276 274 278 275 271 269
230 222 210 193 195 189 190 199 201 204 209 219 237 225 190 198 210 212 213 219 227 234 239 245 250 248 248 255 259 256 251 258 261 270 275 275 278 283 282 275 271 265 270
223 221 210 205 203 198 202 203 199 198 203 216 237 230 199 203 217 222 228 239 241 240 235 228 238 243 239 238 241 248 252 257 257 258 266 272 277 277 279 282 282 277 274
214 211 211 210 200 195 197 199 198 199 203 211 215 211 208 223 233 234 239 245 247 247 238 224 222 236 240 236 228 227 237 249 251 249 251 261 271 276 276 275 276 278 280
196 201 206 208 198 196 199 202 206 210 209 213 219 218 219 227 233 240 244 247 246 251 243 226 220 228 236 240 238 236 240 245 244 238 239 247 263 275 276 277 277 278 281
193 199 203 203 201 199 200 206 211 212 212 218 224 223 226 233 241 252 260 261 255 253 250 237 228 233 241 245 247 250 246 233 229 234 234 238 253 266 274 278 284 289 287
194 198 202 202 202 196 195 204 213 213 213 219 225 225 226 231 241 251 259 257 255 256 254 247 241 242 250 251 251 249 236 231 233 233 228 230 242 255 265 271 283 286 287
Height
1515 1516 1517 1519 1520 1520 1521 1521 1522 1522 1522 1522 1522 1521 1521 1520 1520 1519 1519 1518 1518 1517 1517 1517 1516 1516 1515 1515 1515 1514 1514 1513 1512 1511 1511 1511 1510 1510 1509 1508 1508 1507 1506
1514 1515 1516 1517 1518 1518 1519 1520 1520 1520 1520 1520 1519 1519 1519 1518 1517 1517 1516 1516 1515 1514 1514 1514 1513 1513 1513 1512 1512 1511 1511 1510 1510 1508 1507 1507 1507 1507 1506 1506 1505 1504 1503
1512 1514 1515 1515 1516 1516 1517 1517 1518 1518 1518 1518 1517 1517 1516 1516 1516 1515 1514 1513 1512 1512 1511 1511 1510 1510 1509 1509 1509 1508 1508 1507 1507 1506 1504 1504 1504 1504 1503 1502 1502 1501 1501
1511 1512 1512 1513 1514 1514 1515 1515 1516 1516 1516 1516 1515 1515 1514 1514 1513 1513 1512 1510 1509 1509 1508 1508 1507 1507 1506 1506 1505 1505 1505 1504 1504 1503 1502 1501 1500 1500 1500 1499 1498 1498 1498
1509 1509 1509 1510 1512 1512 1513 1513 1513 1514 1514 1513 1513 1512 1512 1511 1510 1510 1509 1508 1507 1505 1505 1504 1504 1503 1503 1503 1502 1502 1501 1501 1500 1500 1498 1498 1497 1497 1496 1496 1495 1495 1494
1507 1507 1508 1509 1509 1510 1510 1511 1511 1511 1511 1511 1510 1510 1509 1508 1508 1507 1506 1505 1504 1503 1502 1501 1500 1499 1499 1499 1499 1498 1498 1498 1497 1496 1495 1494 1494 1494 1493 1493 1492 1491 1491
1504 1505 1506 1506 1507 1508 1508 1508 1508 1508 1508 1508 1507 1507 1506 1505 1505 1504 1503 1502 1501 1500 1499 1497 1496 1496 1495 1495 1495 1495 1495 1494 1494 1494 1492 1491 1491 1491 1490 1489 1489 1489 1488
1502 1502 1503 1504 1505 1505 1505 1505 1505 1505 1505 1504 1504 1503 1503 1502 1502 1501 1501 1499 1498 1497 1496 1495 1493 1493 1492 1492 1491 1491 1491 1491 1491 1490 1490 1489 1488 1488 1488 1487 1486 1486 1486
1498 1499 1500 1501 1502 1502 1502 1502 1502 1502 1501 1501 1500 1500 1499 1499 1499 1498 1497 1496 1494 1493 1493 1492 1491 1490 1489 1489 1488 1487 1487 1488 1488 1487 1486 1486 1485 1485 1484 1484 1483 1483 1483
1496 1496 1497 1498 1498 1498 1498 1498 1498 1498 1498 1498 1497 1497 1496 1496 1496 1495 1494 1492 1491 1490 1489 1488 1488 1487 1486 1486 1485 1485 1484 1484 1484 1483 1483 1482 1482 1481 1481 1480 1480 1480 1480
1493 1493 1494 1494 1495 1495 1495 1495 1495 1495 1494 1494 1494 1493 1493 1493 1492 1492 1491 1489 1488 1487 1486 1485 1484 1484 1484 1483 1483 1482 1482 1481 1481 1480 1479 1479 1479 1478 1478 1478 1477 1478 1477
1490 1490 1490 1491 1491 1491 1491 1491 1491 1491 1491 1491 1491 1490 1490 1490 1489 1488 1487 1486 1485 1484 1483 1483 1482 1482 1481 1480 1480 1480 1479 1479 1478 1478 1477 1476 1475 1475 1475 1475 1475 1475 1475
1486 1486 1487 1487 1487 1487 1487 1487 1487 1487 1488 1487 1487 1487 1486 1486 1486 1485 1485 1484 1483 1482 1481 1481 1480 1479 1479 1479 1478 1478 1477 1476 1476 1475 1474 1474 1473 1473 1472 1472 1472 1472 1472
1483 1483 1483 1483 1483 1483 1483 1484 1484 1484 1484 1484 1484 1483 1483 1483 1483 1483 1482 1481 1481 1480 1479 1478 1478 1477 1477 1477 1476 1476 1475 1474 1474 1473 1472 1472 1471 1470 1470 1469 1468 1468 1468
1480 1480 1480 1480 1480 1480 1480 1480 1480 1480 1481 1481 1481 1481 1481 1480 1480 1480 1480 1478 1478 1477 1476 1476 1475 1475 1475 1474 1474 1474 1473 1472 1471 1471 1470 1469 1469 1468 1467 1467 1466 1465 1464
1476 1477 1477 1476 1476 1476 1476 1477 1477 1478 1478 1478 1478 1479 1478 1478 1478 1477 1477 1476 1475 1475 1474 1473 1473 1472 1472 1472 1472 1471 1471 1470 1470 1469 1468 1468 1467 1466 1465 1464 1464 1463 1462
1473 1473 1473 1473 1473 1473 1473 1473 1473 1474 1475 1475 1475 1475 1475 1475 1475 1475 1474 1474 1473 1472 1471 1471 1471 1471 1470 1470 1469 1469 1469 1469 1468 1467 1466 1466 1465 1464 1463 1462 1461 1460 1459
1470 1469 1469 1469 1469 1470 1471 1471 1471 1471 1471 1472 1472 1472 1472 1473 1472 1472 1472 1471 1470 1470 1470 1469 1469 1469 1468 1468 1467 1467 1466 1466 1466 1465 1464 1463 1462 1461 1461 1460 1459 1458 1457
1466 1466 1466 1465 1466 1467 1468 1468 1469 1469 1469 1469 1469 1469 1470 1470 1470 1470 1469 1468 1468 1468 1468 1467 1467 1467 1466 1466 1465 1465 1464 1463 1463 1462 1461 1461 1460 1459 1458 1457 1456 1455 1454
1463 1463 1463 1462 1463 1464 1464 1465 1465 1466 1466 1466 1466 1466 1466 1466 1466 1466 1466 1466 1466 1466 1466 1465 1465 1465 1465 1464 1463 1462 1461 1461 1460 1459 1459 1458 1457 1456 1455 1454 1453 1452 1451
1460 1460 1459 1459 1460 1460 1460 1462 1463 1463 1463 1463 1463 1463 1463 1464 1464 1464 1463 1463 1463 1463 1463 1463 1462 1462 1462 1461 1461 1460 1459 1458 1457 1456 1456 1455 1454 1453 1452 1451 1450 1449 1448
1456 1456 1456 1456 1456 1457 1458 1459 1460 1460 1460 1460 1461 1461 1461 1461 1461 1461 1461 1461 1461 1461 1461 1460 1460 1460 1459 1459 1458 1457 1456 1455 1454 1453 1453 1452 1450 1449 1449 1448 1447 1446 1445
1452 1452 1453 1453 1454 1454 1455 1456 1456 1457 1457 1457 1458 1458 1458 1458 1458 1458 1458 1458 1458 1458 1458 1457 1457 1456 1456 1456 1455 1454 1453 1452 1451 1450 1449 1448 1447 1446 1445 1444 1444 1443 1442
1449 1450 1450 1451 1451 1452 1452 1453 1453 1454 1454 1454 1455 1455 1455 1455 1455 1455 1455 1455 1455 1455 1454 1454 1454 1453 1453 1452 1451 1450 1450 1449 1448 1447 1446 1445 1444 1443 1442 1441 1440 1439 1439
1447 1447 1447 1447 1448 1448 1449 1450 1450 1450 1450 1451 1451 1451 1452 1452 1452 1452 1452 1452 1452 1451 1451 1450 1450 1450 1449 1449 1448 1447 1446 1445 1444 1444 1442 1441 1440 1439 1438 1437 1437 1436 1435
1444 1444 1445 1445 1445 1446 1446 1447 1447 1447 1447 1448 1448 1448 1448 1448 1448 1448 1448 1448 1448 1448 1447 1447 1446 1446 1446 1445 1444 1443 1442 1441 1441 1440 1439 1438 1437 1436 1435 1434 1434 1433 1432